Weather History for KOLF - March, 2013

Change the Weather History Date:

Sunday, March 24, 2013

  Actual Average Record
Temperature  
Mean Temperature 7 °F -  
Max Temperature 21 °F 48 °F 75 °F (2007)
Min Temperature -7 °F 21 °F -7 °F (2013)
Degree Days  
Heating Degree Days 58    
Cooling Degree Days 0    
Moisture  
Dew Point 6 °F    
Average Humidity 77    
Maximum Humidity 92    
Minimum Humidity 68    
Precipitation  
Precipitation 0.01 in 0.02 in 0.18 in (2015)
Month to date precipitation 0.50 0.32  
Year to date precipitation 0.70 0.84  
Sea Level Pressure  
Sea Level Pressure 30.41 in    
Wind  
Wind Speed 4 mph (WNW)    
Max Wind Speed 8 mph    
Max Gust Speed -    
Visibility 5 miles    
Events Snow    
T = Trace of Precipitation, MM = Missing Value Source: NWS Daily Summary

Daily Weather History Graph

Daily Weather History Graph

Search for Another Location

Airport or City:

Trip Planner

Search our weather history database for the weather conditions in past years. The results will help you decide how hot, cold, wet, or windy it might be!

Date:

Astronomy

Mar. 24, 2013 Rise Set
Actual Time 6:56 AM MDT 7:21 PM MDT
Civil Twilight 6:25 AM MDT 7:52 PM MDT
Nautical Twilight 5:48 AM MDT 8:29 PM MDT
Astronomical Twilight 5:10 AM MDT 9:07 PM MDT
Moon 4:43 PM MDT (3/24) 5:18 AM MDT (3/24)
Length of Visible Light 13h 27m
Length of Day
12h 25m
Waxing Gibbous, 92% of the Moon is Illuminated
Mar 24
Waxing Gibbous
Mar 27
Full
Apr 2
Last Quarter
Apr 10
New
Apr 18
First Quarter

Hourly Weather History & Observations

Time (MDT) Temp. Windchill Dew Point Humidity Pressure Visibility Wind Dir Wind Speed Gust Speed Precip Events Conditions
12:53 AM 12.0 °F - 6.1 °F 77% 30.42 in 10.0 mi Calm Calm - N/A   Overcast
1:53 AM 12.0 °F 4.1 °F 6.1 °F 77% 30.43 in 4.0 mi West 4.6 mph - N/A   Haze
2:01 AM 12.2 °F 2.9 °F 5.0 °F 73% 30.30 in 10.0 mi WNW 5.8 mph - N/A   Overcast
2:16 AM 12.2 °F 1.7 °F 5.0 °F 73% 30.30 in 10.0 mi West 6.9 mph - N/A   Overcast
2:45 AM 10.4 °F 0.8 °F 6.8 °F 85% 30.30 in 2.5 mi WSW 5.8 mph - 0.00 in Snow Light Snow
2:53 AM 10.9 °F 1.4 °F 6.1 °F 81% 30.43 in 2.0 mi SW 5.8 mph - 0.00 in Snow Light Snow
3:08 AM 10.4 °F 4.0 °F 6.8 °F 85% 30.30 in 3.0 mi WSW 3.5 mph - 0.00 in Snow Light Snow
3:33 AM 10.4 °F 0.8 °F 5.0 °F 79% 30.30 in 6.0 mi WSW 5.8 mph - 0.00 in Snow Light Snow
3:53 AM 10.9 °F 0.2 °F 5.0 °F 77% 30.42 in 8.0 mi WSW 6.9 mph - 0.00 in   Overcast
4:53 AM 10.9 °F 1.4 °F 5.0 °F 77% 30.43 in 6.0 mi SW 5.8 mph - N/A   Haze
5:42 AM 12.2 °F 2.9 °F 6.8 °F 79% 30.31 in 6.0 mi WSW 5.8 mph - 0.00 in   Haze
5:53 AM 12.0 °F 5.9 °F 6.1 °F 77% 30.44 in 7.0 mi West 3.5 mph - 0.00 in   Overcast
6:53 AM 12.9 °F 3.8 °F 6.1 °F 74% 30.45 in 5.0 mi WSW 5.8 mph - N/A   Haze
7:37 AM 12.2 °F 2.9 °F 6.8 °F 79% 30.33 in 6.0 mi SW 5.8 mph - N/A   Haze
7:53 AM 12.9 °F 2.6 °F 6.1 °F 74% 30.45 in 10.0 mi SW 6.9 mph - N/A   Overcast
8:53 AM 14.0 °F 5.1 °F 6.1 °F 71% 30.47 in 9.0 mi Variable 5.8 mph - N/A   Overcast
9:18 AM 14.0 °F 5.1 °F 6.8 °F 73% 30.34 in 10.0 mi WSW 5.8 mph - N/A   Overcast
9:37 AM 15.8 °F 7.2 °F 6.8 °F 68% 30.35 in 10.0 mi West 5.8 mph - N/A   Overcast
9:50 AM 15.8 °F 6.1 °F 6.8 °F 68% 30.35 in 10.0 mi NW 6.9 mph - N/A   Overcast
9:53 AM 16.0 °F 5.3 °F 7.0 °F 68% 30.48 in 10.0 mi NNW 8.1 mph - N/A   Overcast
10:46 AM 15.8 °F 6.1 °F 8.6 °F 73% 30.36 in 10.0 mi West 6.9 mph - N/A   Overcast
10:53 AM 17.1 °F 11.7 °F 9.0 °F 71% 30.49 in 10.0 mi West 3.5 mph - N/A   Overcast
11:17 AM 17.6 °F 9.3 °F 10.4 °F 73% 30.37 in 1.5 mi WNW 5.8 mph - 0.00 in Snow Light Snow
11:26 AM 17.6 °F 10.7 °F 10.4 °F 73% 30.37 in 1.0 mi WNW 4.6 mph - 0.00 in Snow Light Snow
11:36 AM 17.6 °F 8.2 °F 10.4 °F 73% 30.37 in 1.2 mi NNW 6.9 mph - 0.00 in Snow Light Snow
11:42 AM 17.6 °F 7.3 °F 10.4 °F 73% 30.37 in 1.0 mi NNW 8.1 mph - 0.00 in Snow Light Snow
11:53 AM 18.0 °F 8.7 °F 10.9 °F 74% 30.50 in 0.8 mi NW 6.9 mph - 0.00 in Snow Light Snow
11:56 AM 17.6 °F 8.2 °F 10.4 °F 73% 30.37 in 1.0 mi NW 6.9 mph - 0.00 in Snow Light Snow
12:06 PM 17.6 °F 9.3 °F 10.4 °F 73% 30.37 in 1.2 mi WNW 5.8 mph - 0.00 in Snow Light Snow
12:53 PM 19.0 °F 11.1 °F 12.0 °F 74% 30.49 in 1.0 mi North 5.8 mph - 0.00 in Snow Light Snow
1:18 PM 19.4 °F 10.4 °F 12.2 °F 74% 30.37 in 0.8 mi North 6.9 mph - 0.00 in Snow Light Snow
1:29 PM 19.4 °F 12.8 °F 14.0 °F 80% 30.37 in 0.5 mi North 4.6 mph - N/A Snow Snow
1:48 PM 19.4 °F - 14.0 °F 80% 30.37 in 0.2 mi Calm Calm - 0.00 in Snow Heavy Snow
1:53 PM 19.9 °F - 15.1 °F 81% 30.50 in 0.2 mi Calm Calm - 0.01 in Snow Heavy Snow
2:05 PM 19.4 °F 14.3 °F 14.0 °F 80% 30.38 in 0.5 mi North 3.5 mph - 0.00 in Snow Snow
2:20 PM 19.4 °F 11.5 °F 15.8 °F 86% 30.38 in 0.8 mi North 5.8 mph - 0.00 in Snow Light Snow
2:23 PM 21.2 °F 12.6 °F 14.0 °F 74% 30.38 in 1.0 mi North 6.9 mph - 0.00 in Snow Light Snow
2:33 PM 19.4 °F 11.5 °F 12.2 °F 74% 30.38 in 1.2 mi North 5.8 mph - 0.00 in Snow Light Snow
2:53 PM 19.9 °F 10.1 °F 12.0 °F 71% 30.50 in 2.0 mi NNW 8.1 mph - 0.00 in Snow Light Snow
3:01 PM 19.4 °F 11.5 °F 12.2 °F 74% 30.37 in 3.0 mi NNW 5.8 mph - 0.00 in Snow Light Snow
3:53 PM 19.9 °F 11.1 °F 10.9 °F 68% 30.49 in 10.0 mi North 6.9 mph - 0.00 in   Overcast
4:53 PM 18.0 °F 9.8 °F 9.0 °F 68% 30.50 in 10.0 mi NW 5.8 mph - N/A   Clear
5:53 PM 18.0 °F 9.8 °F 9.0 °F 68% 30.50 in 10.0 mi NW 5.8 mph - N/A   Clear
6:53 PM 14.0 °F 8.2 °F 6.1 °F 71% 30.50 in 10.0 mi NNW 3.5 mph - N/A   Clear
7:53 PM 6.1 °F - 1.0 °F 80% 30.51 in 10.0 mi Calm Calm - N/A   Clear
8:53 PM 1.9 °F -5.6 °F -2.0 °F 83% 30.52 in 10.0 mi NW 3.5 mph - N/A   Clear
9:53 PM -0.9 °F - -5.1 °F 83% 30.52 in 10.0 mi Calm Calm - N/A   Clear
10:48 PM -0.4 °F - -2.2 °F 92% 30.38 in 2.0 mi Calm Calm - N/A   Scattered Clouds
10:49 PM 1.4 °F - -2.2 °F 85% 30.38 in 1.2 mi Calm Calm - N/A   Scattered Clouds
10:51 PM 1.4 °F - -2.2 °F 85% 30.38 in 0.8 mi Calm Calm - N/A   Mist
10:53 PM 1.0 °F - -0.9 °F 91% 30.52 in 0.8 mi Calm Calm - N/A   Mist
11:08 PM -0.4 °F - -5.8 °F 78% 30.38 in 1.2 mi Calm Calm - N/A   Overcast
11:11 PM -2.2 °F - -5.8 °F 85% 30.38 in 4.0 mi Calm Calm - N/A   Overcast
11:31 PM -2.2 °F - -7.6 °F 78% 30.38 in 10.0 mi Calm Calm - N/A   Scattered Clouds
11:53 PM -4.0 °F - -8.0 °F 83% 30.53 in 10.0 mi Calm Calm - N/A   Clear